Date String (YYYY-MM-DD hh:mm:ss) UTC,Instrument flags,Ambient pressure (hPa),Sample flow (lpm),Bypass flow (lpm),Sample temperature (°C),Ambient temperature (°C),ASC tube jacket temperature (°C),LED temperature (°C),Box temperature (°C),Sample RH (%),Span deviation,Mass concentration (μg/m³),Mass concentration (μg/m³),Mass concentration (μg/m³)
DateTimeUTC,F1_M11,P_M11,Q1_M11,Q2_M11,T1_M11,T2_M11,T3_M11,T4_M11,T5_M11,U1_M11,ZSPAN_M11,X0_M11,X2_M11,X1_M11
2021-11-26 15:00:00,,0829.2,5.00,0.00,26.2,25.4,00.0,35.1,28.0,09.4,0000.0,0001.44,0000.61,0000.40
2021-11-26 15:01:00,,0829.2,4.99,0.00,26.2,25.4,00.0,35.1,27.9,09.4,0000.0,0001.52,0000.61,0000.40
2021-11-26 15:02:00,,0829.2,5.00,0.00,26.2,25.4,00.0,35.1,28.0,09.5,0000.0,0001.47,0000.59,0000.41
2021-11-26 15:03:00,,0829.2,5.00,0.00,26.2,25.4,00.0,35.1,28.0,09.5,0000.0,0001.48,0000.61,0000.41
2021-11-26 15:04:00,,0829.2,5.01,0.00,26.2,25.4,00.0,35.2,28.0,09.5,0000.0,0001.27,0000.61,0000.41
2021-11-26 15:05:00,,0829.2,4.99,0.00,26.2,25.4,00.0,35.2,28.0,09.5,0000.0,0001.26,0000.60,0000.40
2021-11-26 15:06:00,,0829.2,5.01,0.00,26.2,25.4,00.0,35.2,28.0,09.5,0000.0,0001.27,0000.61,0000.40
2021-11-26 15:07:00,,0829.2,4.99,0.00,26.2,25.4,00.0,35.2,28.0,09.5,0000.0,0001.32,0000.64,0000.40
2021-11-26 15:08:00,,0829.2,5.00,0.00,26.3,25.4,00.0,35.2,28.0,09.4,0000.0,0001.24,0000.60,0000.39
2021-11-26 15:09:00,,0829.2,5.01,0.00,26.3,25.4,00.0,35.2,28.0,09.4,0000.0,0001.24,0000.58,0000.38
2021-11-26 15:10:00,,0829.1,5.00,0.00,26.3,25.4,00.0,35.2,28.0,09.4,0000.0,0001.34,0000.59,0000.38
2021-11-26 15:11:00,,0829.1,4.99,0.00,26.3,25.4,00.0,35.2,28.0,09.4,0000.0,0001.42,0000.61,0000.39
2021-11-26 15:12:00,,0829.1,5.00,0.00,26.3,25.4,00.0,35.2,28.0,09.4,0000.0,0001.30,0000.64,0000.39
2021-11-26 15:13:00,,0829.1,5.01,0.00,26.3,25.4,00.0,35.2,28.0,09.4,0000.0,0001.35,0000.65,0000.39
2021-11-26 15:14:00,,0829.1,4.98,0.00,26.3,25.4,00.0,35.2,28.0,09.4,0000.0,0001.28,0000.64,0000.39
2021-11-26 15:15:00,,0829.1,5.01,0.00,26.3,25.4,00.0,35.2,28.0,09.4,0000.0,0001.26,0000.64,0000.40
2021-11-26 15:16:00,,0829.0,5.01,0.00,26.3,25.4,00.0,35.2,28.1,09.4,0000.0,0001.33,0000.66,0000.39
2021-11-26 15:17:00,,0829.1,4.99,0.00,26.3,25.4,00.0,35.2,28.1,09.4,0000.0,0001.26,0000.64,0000.39
2021-11-26 15:18:00,,0829.1,4.99,0.00,26.3,25.4,00.0,35.2,28.1,09.4,0000.0,0001.25,0000.61,0000.39
2021-11-26 15:19:00,,0829.1,5.01,0.00,26.3,25.4,00.0,35.2,28.1,09.4,0000.0,0001.34,0000.61,0000.40
2021-11-26 15:20:00,,0829.1,4.99,0.00,26.3,25.4,00.0,35.2,28.1,09.3,0000.0,0001.35,0000.62,0000.40
2021-11-26 15:21:00,,0829.1,5.01,0.00,26.3,25.4,00.0,35.2,28.1,09.4,0000.0,0001.33,0000.64,0000.39
2021-11-26 15:22:00,,0829.2,5.01,0.00,26.3,25.4,00.0,35.2,28.1,09.4,0000.0,0001.30,0000.64,0000.39
2021-11-26 15:23:00,,0829.2,5.00,0.00,26.3,25.4,00.0,35.2,28.1,09.4,0000.0,0001.43,0000.63,0000.38
2021-11-26 15:24:00,,0829.2,5.01,0.00,26.3,25.5,00.0,35.3,28.1,09.4,0000.0,0001.59,0000.65,0000.39
2021-11-26 15:25:00,,0829.2,4.99,0.00,26.3,25.4,00.0,35.3,28.1,09.4,0000.0,0001.65,0000.67,0000.39
2021-11-26 15:26:00,,0829.2,5.00,0.00,26.3,25.4,00.0,35.3,28.1,09.4,0000.0,0001.71,0000.69,0000.39
2021-11-26 15:27:00,,0829.2,5.00,0.00,26.3,25.5,00.0,35.3,28.1,09.4,0000.0,0001.70,0000.69,0000.38
2021-11-26 15:28:00,,0829.2,5.00,0.00,26.3,25.5,00.0,35.3,28.1,09.4,0000.0,0001.67,0000.68,0000.38
2021-11-26 15:29:00,,0829.2,5.00,0.00,26.3,25.5,00.0,35.3,28.1,09.3,0000.0,0001.74,0000.69,0000.38
2021-11-26 15:30:00,,0829.3,5.01,0.00,26.4,25.5,00.0,35.3,28.1,09.4,0000.0,0001.63,0000.69,0000.37
2021-11-26 15:31:00,,0829.3,4.99,0.00,26.4,25.5,00.0,35.3,28.1,09.5,0000.0,0001.61,0000.67,0000.37
2021-11-26 15:32:00,,0829.2,5.01,0.00,26.4,25.5,00.0,35.3,28.2,09.5,0000.0,0001.57,0000.66,0000.37
2021-11-26 15:33:00,,0829.2,4.98,0.00,26.4,25.5,00.0,35.3,28.2,09.4,0000.0,0001.50,0000.64,0000.37
2021-11-26 15:34:00,,0829.2,5.01,0.00,26.4,25.5,00.0,35.3,28.2,09.4,0000.0,0001.39,0000.63,0000.37
2021-11-26 15:35:00,,0829.2,4.99,0.00,26.4,25.6,00.0,35.3,28.2,09.4,0000.0,0001.23,0000.62,0000.36
2021-11-26 15:36:00,,0829.2,5.00,0.00,26.4,25.6,00.0,35.3,28.2,09.4,0000.0,0001.19,0000.61,0000.35
2021-11-26 15:37:00,,0829.2,5.01,0.00,26.4,25.6,00.0,35.3,28.2,09.5,0000.0,0001.26,0000.65,0000.35
2021-11-26 15:38:00,,0829.2,5.01,0.00,26.4,25.6,00.0,35.4,28.3,09.4,0000.0,0001.45,0000.60,0000.35
2021-11-26 15:39:00,,0829.3,5.00,0.00,26.4,25.6,00.0,35.4,28.3,09.4,0000.0,0001.50,0000.62,0000.35
2021-11-26 15:40:00,,0829.2,5.01,0.00,26.5,25.7,00.0,35.4,28.3,09.5,0000.0,0001.45,0000.62,0000.35
2021-11-26 15:41:00,,0829.2,4.99,0.00,26.5,25.7,00.0,35.4,28.3,09.5,0000.0,0001.40,0000.61,0000.36
2021-11-26 15:42:00,,0829.3,4.99,0.00,26.5,25.7,00.0,35.4,28.3,09.5,0000.0,0001.38,0000.62,0000.37
2021-11-26 15:43:00,,0829.2,5.01,0.00,26.5,25.7,00.0,35.4,28.3,09.5,0000.0,0001.42,0000.63,0000.38
2021-11-26 15:44:00,,0829.2,5.00,0.00,26.5,25.7,00.0,35.4,28.3,09.6,0000.0,0001.40,0000.63,0000.37
2021-11-26 15:45:00,,0829.2,5.00,0.00,26.5,25.7,00.0,35.4,28.3,09.7,0000.0,0001.54,0000.66,0000.37
2021-11-26 15:46:00,,0829.1,5.01,0.00,26.5,25.8,00.0,35.4,28.4,09.5,0000.0,0001.54,0000.67,0000.38
2021-11-26 15:47:00,,0829.1,5.00,0.00,26.5,25.8,00.0,35.5,28.4,09.4,0000.0,0001.53,0000.67,0000.39
2021-11-26 15:48:00,,0829.1,5.01,0.00,26.6,25.8,00.0,35.5,28.4,09.4,0000.0,0001.46,0000.65,0000.40
2021-11-26 15:49:00,,0829.0,4.99,0.00,26.6,25.8,00.0,35.5,28.4,09.4,0000.0,0001.18,0000.64,0000.40
2021-11-26 15:50:00,,0829.1,5.00,0.00,26.6,25.8,00.0,35.5,28.4,09.5,0000.0,0001.13,0000.63,0000.40
2021-11-26 15:51:00,,0829.1,4.99,0.00,26.6,25.9,00.0,35.5,28.4,09.5,0000.0,0001.19,0000.65,0000.40
2021-11-26 15:52:00,,0829.1,5.00,0.00,26.6,25.9,00.0,35.5,28.5,09.5,0000.0,0001.30,0000.67,0000.40
2021-11-26 15:53:00,,0829.1,5.00,0.00,26.6,25.9,00.0,35.5,28.5,09.5,0000.0,0001.30,0000.66,0000.39
2021-11-26 15:54:00,,0829.1,5.01,0.00,26.6,25.9,00.0,35.5,28.5,09.4,0000.0,0001.24,0000.64,0000.38
2021-11-26 15:55:00,,0829.1,4.98,0.00,26.7,25.9,00.0,35.6,28.5,09.4,0000.0,0001.50,0000.64,0000.38
2021-11-26 15:56:00,,0829.0,5.00,0.00,26.7,25.9,00.0,35.6,28.5,09.5,0000.0,0001.60,0000.64,0000.39
2021-11-26 15:57:00,,0829.0,5.01,0.00,26.7,26.0,00.0,35.6,28.6,09.4,0000.0,0001.55,0000.63,0000.40
2021-11-26 15:58:00,,0829.1,5.00,0.00,26.7,26.0,00.0,35.6,28.6,09.3,0000.0,0001.52,0000.61,0000.39
2021-11-26 15:59:00,,0829.1,4.99,0.00,26.7,26.0,00.0,35.6,28.6,09.3,0000.0,0001.58,0000.59,0000.38
